Location: New York
(40.7127°N, 74.0060°W)
Time: 17:12:50
(UTC-05:00)

ISS - Visible Passes

Search period start: 29 November 2023 00:00
Search period end: 09 December 2023 00:00
Orbit: 416 x 417 km, 51.6° (Epoch: 29 November)

Date Brightness Start Highest point End Pass type
(mag) Time Alt. Az. Time Alt. Az. Time Alt. Az.
29 Nov -1.4 18:31:38 10° NW 18:32:40 17° NNW 18:32:40 17° NNW visible
30 Nov -2.2 17:43:26 10° NNW 17:46:05 21° NNE 17:46:27 20° NNE visible
01 Dec -1.9 16:55:12 10° NNW 16:57:28 17° NNE 16:59:44 10° ENE visible
01 Dec -2.1 18:31:25 10° NW 18:33:13 29° NW 18:33:13 29° NW visible
02 Dec -3.2 17:43:04 10° NW 17:46:14 38° NNE 17:47:13 30° ENE visible
02 Dec -0.2 19:20:01 10° WNW 19:20:09 11° WNW 19:20:09 11° WNW visible
03 Dec -2.6 16:54:44 10° NW 16:57:38 26° NNE 17:00:33 10° E visible
03 Dec -2.8 18:31:17 10° WNW 18:34:19 45° SW 18:34:19 45° SW visible
04 Dec -3.8 17:42:40 10° NW 17:46:02 84° SW 17:48:45 15° SE visible
05 Dec -3.7 16:54:08 10° NW 16:57:27 57° NNE 17:00:44 10° ESE visible
05 Dec -0.8 18:31:42 10° W 18:33:52 16° SW 18:36:02 10° S visible
06 Dec -1.6 17:42:29 10° WNW 17:45:25 28° SW 17:48:20 10° SSE visible
07 Dec -2.7 16:53:36 10° WNW 16:56:52 50° SW 17:00:06 10° SE visible
